OBJECT A, 57424

Orbit data source: Space-Track

You're viewing an Uncataloged Satellite

Recently launched and/or uncataloged satellites may have evolving metadata. Metadata may include but not limited to: Owner, Maufacturer, Bus, Motor, and Mission.

OBJECT A, 57424 is a Chinese satellite in SSO that was launched on Sun, 23 Jul 2023 UTC via a CHANG ZHENG 2D launch vehicle from the Taiyaun Space Center, China (TSC). Unknown objects in Earth's orbit typically refer to objects detected orbiting the Earth but have not yet been identified or cataloged. These objects could be anything from previously untracked satellites, spent rocket stages, debris from satellite collisions, or even natural meteoroids temporarily captured by Earth's gravity.

Loading next visibility...
Identifier
57424, 2023-104A
Orbit
SSO
Country
Flag of CNCN / PRC
Related business
None
Manufacturer
DFH
Mission
Operational Commercial Radar Imaging
Bus & Motor
AS, Unknown motor
Mass
~100 kg wet, ~100 kg dry
Launch date (UTC)
2023-07-23 (2 years ago)
Launch vehicle
CHANG ZHENG 2D
Launch site
Taiyaun Space Center, China (TSC)
Object type
Unknown
Shape & HBR
Box + 2 Pan, 0.8 m
Radar Cross Section
0.363 m², Large (>1 m²)

Expand to show TLE details & history
Last TLE update: 8 hours ago

TLE from 8 hours ago
0 OBJECT A
1 57424U 23104A   25258.99818958  .00013541  00000-0  45056-3 0  9998
2 57424  97.3050 326.2710 0009123  28.9094 331.2651 15.31228910120035
Epoch: 2025-09-15T23:57Z
TLE epoch observation values (Epoch: 2025-09-15T23:57:23.579Z)
Latitude
-0.00005°
Longitude
-28.27204°
Altitude
469.773 km
Speed
7.634 km/s
True Right ascension
21h 45m 05s
True Declination
0° 00' 00"
Sunlit
Object was in full shadow at epoch
Visualization orbit readout
Latitude
Unknown
Longitude
Unknown
Altitude
Unknown
Speed
Unknown
Apparent Right ascension
Unknown
Apparent Declination
Unknown
Sunlit
N/A
Visualization observer readout
Local Sidereal Time
00:45:23
Azimuth
Unknown
Elevation
Unknown
Doppler factor
Unknown
Orbital elements
Apogee altitude
475.338 km
Perigee altitude
462.844 km
Semi-major axis
6,847.228 km
Eccentricity
0.00091
Inclination
97.305°
RAAN
326.271°
Arg. of periapsis
28.9094°
True anomaly
331.21479°
Mean anomaly
331.2651°
Eccentric anomaly
331.23995°
Mean motion
3.83064 °/min
Orbital period
93.98 mins
BSTAR
0.00045056
Loading maneuver chart data...
Computing Atmospheric mass density...
Loading historical data...
Loading historical data...
Loading historical data...
Loading historical data...
Loading historical data...
Loading historical data...
Loading historical data...
Other satellites on launch #104 in the year 2023 (2023-07-23 UTC)

Documentation

Showing up to 5 results
|